Theta_e
296 296 297 297 302 301 303 304 305 308 308 306 305 306 307 308 303 302 301 300 303 298 295 296 296 296 294 294 293 289 291 290 287 291 292 287 284 283 282 284 286 286 284 280 274 278 287 286 285 287 286 286 286 286
295 295 296 300 299 300 302 301 303 304 305 305 306 306 308 308 302 300 299 299 301 300 294 295 296 296 296 295 293 291 293 290 291 290 284 283 281 278 281 285 284 288 284 285 284 287 285 286 286 287 287 287 285 284
292 294 295 296 300 299 301 302 304 304 304 306 308 308 310 306 301 301 301 299 300 295 290 293 293 294 294 294 294 293 289 292 291 291 286 286 285 283 284 283 281 282 282 282 284 284 285 286 286 286 286 286 285 283
293 292 293 295 298 299 301 302 303 302 303 305 307 308 308 303 300 301 301 302 299 297 291 289 291 292 293 293 293 293 293 291 291 292 288 281 283 284 284 286 285 285 283 282 284 283 284 286 286 287 286 285 284 282
292 292 292 294 296 297 297 299 300 303 304 306 304 305 304 302 301 300 301 299 299 300 288 286 289 290 292 293 292 293 293 292 293 289 287 285 286 284 283 283 282 284 285 288 289 287 288 288 288 286 286 285 284 282
291 292 292 293 295 297 295 295 297 298 300 301 303 305 303 302 300 299 294 295 296 298 292 288 286 288 290 292 293 294 292 292 293 290 286 286 287 287 283 283 287 289 289 290 289 289 288 289 288 287 285 284 282 281
291 291 292 293 294 295 296 295 295 296 297 298 299 300 302 303 300 299 297 297 296 298 291 284 284 286 289 291 290 290 291 291 291 288 286 286 286 286 278 283 288 289 289 288 289 289 285 286 286 285 284 282 280 281
290 291 292 292 293 294 295 295 295 295 295 297 298 300 301 300 298 297 297 297 296 297 290 285 282 286 288 287 286 288 289 290 288 285 285 283 284 284 285 284 291 290 288 287 287 288 288 288 285 283 282 281 281 280
290 290 292 292 292 293 294 295 294 294 296 296 297 298 295 295 293 290 292 294 295 296 285 285 286 287 286 285 286 287 288 286 283 283 283 284 277 285 288 287 287 289 290 289 285 285 285 286 285 282 282 281 281 279
290 290 291 292 292 293 293 293 293 294 296 295 295 294 292 292 293 291 294 295 292 288 287 284 284 284 285 284 283 284 284 283 286 283 282 281 281 287 291 290 292 291 288 288 285 281 282 283 283 283 283 282 280 279
290 290 292 292 293 292 293 294 293 293 295 294 291 289 290 291 292 292 289 288 285 284 283 281 282 283 283 285 283 284 284 283 287 281 283 277 278 282 291 291 290 289 289 288 288 287 287 287 286 284 282 280 278 279
290 290 291 292 292 292 292 294 293 292 292 291 291 291 291 291 289 287 285 284 286 285 279 281 283 283 284 287 284 283 283 282 288 276 282 280 282 284 284 286 287 287 287 286 285 285 285 283 283 282 281 279 279 278
289 290 291 291 292 292 292 292 292 291 290 291 291 290 289 286 287 289 287 280 275 274 279 281 282 284 285 284 281 282 284 283 277 281 283 283 280 280 281 282 283 284 283 284 283 282 282 282 281 281 279 278 278 277
289 290 291 291 292 293 293 292 291 290 290 290 285 283 282 280 274 271 274 271 276 279 282 283 278 283 282 282 282 283 275 278 281 279 281 277 276 278 279 279 281 281 280 280 281 280 281 280 279 279 278 277 277 276
290 291 291 291 293 292 291 291 290 290 289 283 281 273 269 270 271 272 273 275 278 281 283 280 279 280 277 278 276 274 275 279 281 282 277 273 274 276 277 278 279 278 278 279 280 280 279 278 278 277 276 277 276 275
291 291 291 292 292 291 291 291 290 289 281 277 272 269 271 269 270 273 275 277 280 282 284 286 278 282 280 278 272 276 278 278 276 266 270 271 272 275 277 277 277 277 278 278 278 277 277 277 276 276 276 276 275 273
291 291 291 291 292 291 290 290 288 280 275 274 269 271 271 271 271 273 275 278 282 282 281 276 278 279 273 273 273 266 271 265 266 268 271 271 273 274 275 275 275 276 277 277 276 276 275 276 275 275 275 274 274 273
290 291 291 291 291 290 287 285 280 276 270 272 271 271 271 271 273 274 277 278 281 280 279 275 275 271 270 273 268 263 267 267 268 269 270 271 272 273 273 274 275 276 275 275 275 275 275 275 275 274 274 273 274 272
290 290 289 288 288 288 284 280 279 271 274 274 274 273 273 272 272 274 276 279 280 279 276 272 267 266 265 263 264 265 266 267 269 270 271 272 273 274 274 274 274 274 274 274 273 274 274 274 274 274 274 273 273 271
290 288 288 288 288 285 281 279 279 278 275 275 275 274 273 273 272 273 276 277 276 272 265 265 263 262 262 263 264 265 266 268 269 270 270 271 272 272 272 272 272 273 273 273 273 273 273 273 273 273 272 272 272 271
289 289 289 288 285 283 279 278 278 277 276 275 275 274 274 273 272 270 270 271 267 261 263 262 262 262 263 264 265 265 266 267 268 269 270 270 270 271 271 272 272 272 272 272 272 272 273 273 272 271 271 271 270 270
288 289 288 287 284 281 278 277 277 277 277 275 274 273 271 270 268 266 266 264 261 260 261 261 262 263 264 265 265 266 267 267 267 268 269 270 270 271 271 271 271 272 272 272 272 272 272 271 271 271 271 270 270 270
286 286 285 283 282 280 276 276 276 275 274 270 272 271 266 267 266 266 261 261 261 260 261 262 264 264 264 265 265 266 267 267 268 268 269 269 270 270 271 271 271 271 271 271 271 271 271 271 271 271 270 270 270 270
285 283 278 276 276 268 274 272 273 271 270 266 266 265 263 264 266 262 260 261 261 261 262 263 264 264 264 264 264 266 267 267 268 268 269 270 270 270 270 270 270 270 270 271 270 270 270 270 270 270 270 270 270 270
281 267 269 264 269 267 264 263 263 265 261 255 263 263 261 263 259 257 257 261 261 261 262 262 263 263 264 265 265 265 265 267 268 269 268 269 269 269 269 268 269 269 269 269 269 269 269 269 268 268 268 268 268 268
261 259 260 254 260 263 258 262 259 259 257 259 258 261 263 258 259 258 258 260 260 260 261 262 263 264 264 264 265 266 266 267 268 269 268 267 267 268 269 268 267 267 267 267 267 267 268 268 268 268 269 269 269 268
261 256 259 260 261 261 259 260 260 257 256 257 254 257 258 258 257 259 261 260 260 260 261 262 262 263 263 265 266 266 266 266 267 267 267 267 267 267 267 267 266 266 266 267 267 268 269 269 269 268 268 268 267 267
259 260 258 259 259 259 251 252 253 252 252 255 256 255 256 257 259 261 261 260 260 261 261 262 262 263 264 265 265 266 266 266 266 266 266 266 266 266 266 266 265 266 266 266 266 267 267 267 267 267 267 267 268 267
261 261 260 254 257 257 254 252 253 256 256 256 254 254 260 262 262 261 261 261 261 262 263 263 264 264 264 264 264 264 265 266 266 266 267 267 267 265 265 265 265 265 265 266 266 266 266 266 267 267 267 268 268 268
261 261 260 259 255 255 258 258 259 258 258 259 260 261 262 262 262 262 262 261 261 262 262 262 262 263 264 265 266 266 265 266 265 265 265 266 267 267 267 267 267 267 267 267 267 268 267 266 266 266 266 266 266 266
263 263 263 262 261 261 261 262 263 263 263 263 263 262 262 262 262 262 262 262 262 262 263 263 264 263 264 264 264 265 266 265 264 264 263 264 265 266 266 266 267 267 267 267 267 267 266 266 266 266 266 266 265 264
263 262 263 259 262 262 262 264 265 265 264 264 263 263 263 263 264 264 263 262 262 263 263 263 263 264 264 264 264 263 262 263 264 264 265 265 266 266 266 267 267 267 267 266 266 266 265 265 265 265 265 265 264 264
265 265 264 263 262 262 264 264 265 265 264 263 264 264 264 264 264 264 263 263 262 262 263 263 264 264 265 264 264 264 264 265 265 265 265 265 266 266 266 266 266 265 265 264 264 264 264 263 263 263 263 263 264 264
Wind_Speed
21 30 24 31 31 30 42 42 44 45 43 42 43 43 51 69 79 66 49 44 38 8 23 22 22 27 20 25 10 20 11 5 3 4 4 4 3 7 4 3 6 8 8 4 3 3 9 21 8 8 6 15 22 19
6 18 28 34 31 29 35 38 40 38 35 36 39 42 41 81 83 63 46 40 30 14 13 19 27 30 36 30 24 39 7 22 14 4 1 4 3 2 5 4 4 4 7 7 10 7 1 39 5 15 18 19 18 16
13 7 10 4 37 32 31 33 40 39 35 32 33 34 61 87 80 65 49 45 34 13 11 14 16 23 30 29 32 19 8 21 12 8 9 3 4 4 5 5 3 4 7 3 3 5 12 34 14 20 18 14 12 11
8 8 13 6 21 27 30 28 31 29 39 37 35 55 57 83 69 61 54 47 39 14 5 5 17 20 27 31 36 24 22 21 19 12 5 3 3 8 3 3 3 4 13 7 4 2 7 23 31 25 21 17 15 13
7 4 11 6 13 22 20 26 30 32 33 37 36 54 65 71 55 47 43 47 46 23 6 8 15 13 27 30 26 12 17 23 17 5 3 2 6 5 1 2 2 11 7 7 8 19 13 13 38 32 27 23 17 13
8 7 7 8 4 16 18 17 18 17 23 25 32 46 50 59 56 50 9 36 39 27 11 3 5 11 16 23 25 20 21 19 13 4 4 4 5 3 4 4 6 30 20 22 6 14 17 9 17 30 27 22 17 12
11 10 7 10 10 11 16 17 18 17 19 18 21 27 38 49 60 46 12 23 45 29 9 4 3 8 24 26 18 18 18 10 5 6 3 5 4 7 3 4 6 23 30 22 15 19 14 19 16 27 24 20 16 12
6 11 13 10 11 14 17 19 20 18 22 20 19 27 31 47 41 27 7 21 51 24 9 4 2 5 12 6 6 8 7 7 3 4 4 4 5 0 4 6 17 17 26 23 22 24 14 19 17 27 25 20 15 13
7 5 13 14 14 15 19 21 21 20 28 28 27 35 43 26 14 20 33 40 31 9 7 4 6 5 11 6 7 4 5 2 2 1 2 4 1 6 8 15 24 31 35 36 31 24 18 20 25 26 23 19 16 16
12 9 17 19 16 18 23 24 26 30 42 38 37 9 6 9 27 37 12 6 4 5 5 3 8 4 12 5 3 5 3 3 3 1 8 2 4 22 19 17 24 35 36 29 33 25 25 26 29 27 22 15 14 14
15 13 18 20 19 18 25 28 26 27 35 20 6 6 38 36 12 5 4 4 3 3 4 5 5 6 5 3 3 2 3 2 3 3 4 2 5 6 32 30 21 28 33 31 33 29 28 25 27 24 21 19 18 17
17 15 16 19 22 21 20 31 31 25 9 8 20 28 14 6 5 5 2 2 2 4 5 5 8 9 8 7 5 3 3 1 4 8 2 3 5 8 14 35 34 29 35 33 30 20 20 24 18 17 19 18 16 16
17 17 17 19 24 22 23 30 28 21 35 28 11 5 4 2 4 4 5 1 2 4 10 11 6 8 6 6 7 3 3 2 10 2 4 5 3 5 9 19 29 26 31 31 27 21 20 20 17 17 17 17 18 18
18 19 21 20 25 28 30 29 27 23 10 6 4 4 2 3 3 2 1 3 2 5 28 21 9 4 5 3 3 4 1 3 3 2 7 2 9 8 13 19 25 28 30 27 23 19 15 15 15 15 17 18 18 16
20 20 20 22 28 28 32 30 20 9 6 7 6 3 4 1 2 3 3 3 5 23 20 13 10 7 2 5 3 5 2 4 6 5 2 9 5 10 12 17 22 28 27 23 18 15 15 14 14 15 16 18 17 17
23 22 18 31 37 27 27 23 10 8 7 6 9 4 3 3 3 3 4 7 18 20 8 7 4 4 2 5 4 7 8 7 3 2 11 7 5 13 16 18 20 20 18 15 12 13 13 12 12 14 17 17 16 17
22 26 25 20 31 26 24 20 8 10 7 6 4 8 6 5 3 3 4 8 19 2 2 2 5 4 3 3 1 1 4 2 7 9 6 4 8 16 19 18 17 13 9 8 10 9 10 11 13 14 13 12 17 18
35 30 29 31 25 24 18 10 8 8 8 9 4 5 7 6 5 6 6 9 7 3 3 2 7 3 3 4 2 2 2 5 9 12 12 13 14 16 14 10 5 4 5 7 8 9 10 11 12 11 12 16 20 19
28 28 28 24 20 12 6 7 7 6 6 5 6 7 8 9 13 12 14 13 14 11 8 5 6 3 2 2 2 4 5 4 4 7 8 8 8 7 5 4 4 5 5 6 7 7 9 11 11 12 15 19 21 19
29 31 22 15 5 6 6 6 6 8 3 4 5 5 5 7 9 15 16 13 13 7 9 5 3 2 2 2 2 4 5 4 3 2 4 3 3 2 3 4 4 4 5 6 7 9 11 12 13 16 20 21 22 19
23 18 12 6 14 11 8 5 6 6 7 6 6 4 5 7 8 10 12 12 12 8 4 6 4 3 3 4 4 4 4 4 3 1 2 1 1 1 2 5 6 8 10 11 12 13 15 16 16 21 24 23 22 23
20 17 11 8 7 7 8 8 6 6 5 6 4 4 6 4 6 8 7 16 7 6 4 6 7 4 4 3 3 2 2 1 1 1 2 3 4 6 7 10 11 12 13 14 16 17 18 19 21 22 24 22 23 22
15 9 5 6 5 6 4 3 3 4 3 2 3 4 4 5 5 6 7 7 6 13 10 10 7 5 5 4 3 3 4 5 6 7 8 9 10 11 13 14 17 17 17 15 19 19 19 19 20 21 21 21 21 21
6 5 7 6 9 2 4 5 4 4 4 4 3 3 3 4 3 7 4 4 5 10 10 9 8 2 2 3 5 7 7 7 8 9 13 13 12 13 15 15 17 18 18 16 16 16 17 18 19 20 21 22 22 22
4 11 7 7 9 5 5 4 5 4 3 3 3 3 3 3 3 4 2 4 7 11 11 8 5 4 3 3 6 8 12 12 12 11 8 13 12 11 12 14 15 14 14 14 14 14 15 16 17 17 18 19 20 21
8 11 7 3 6 4 1 3 4 2 2 4 2 3 3 3 5 2 1 7 8 11 12 12 10 7 5 10 13 12 12 14 14 13 9 10 12 14 13 9 6 8 8 9 11 14 15 16 18 20 21 21 22 23
6 5 7 10 3 4 6 8 6 5 5 4 3 4 3 5 3 1 2 7 8 10 11 11 12 13 15 15 14 14 14 15 16 14 13 12 10 10 9 8 9 10 13 16 17 18 19 18 18 19 20 20 20 21
7 9 5 10 10 12 4 4 5 3 2 4 1 6 4 2 1 2 3 6 8 10 10 11 13 15 16 17 16 16 14 13 13 11 7 6 7 9 10 10 13 16 18 19 19 19 19 20 21 22 23 25 25 24
7 7 4 6 7 9 9 3 2 4 5 2 3 2 4 6 13 13 11 11 14 15 14 14 14 14 12 11 10 12 15 15 9 8 10 10 8 8 13 16 17 17 19 19 18 19 21 22 23 25 26 28 29 30
8 10 6 6 5 5 8 8 8 11 14 12 11 19 18 13 10 13 16 17 19 20 20 21 20 19 18 17 14 11 12 12 11 16 20 19 20 17 17 17 18 18 19 21 22 22 21 22 23 25 26 27 28 29
5 5 7 8 5 4 11 16 22 24 24 23 21 18 11 9 9 16 17 20 21 22 23 25 22 20 21 19 22 23 17 13 18 20 21 23 23 22 21 20 20 21 22 22 23 24 25 26 27 28 29 29 28 28
8 7 6 4 3 5 4 5 7 6 5 5 5 4 3 3 3 8 18 20 25 25 28 30 29 26 20 18 20 18 20 22 20 19 19 20 21 21 22 23 23 24 25 26 27 28 28 28 28 28 30 30 29 28
8 14 11 6 4 2 4 3 4 4 6 4 7 7 6 4 4 13 17 21 26 25 30 31 28 26 21 24 22 20 20 19 19 19 19 21 23 25 25 25 26 26 27 28 28 27 28 29 30 30 29 28 27 27
Wind_Direction
217 216 223 222 213 214 211 210 212 214 210 213 219 224 222 211 195 197 200 186 192 124 157 182 168 165 159 171 159 158 125 206 119 163 155 182 153 199 118 158 175 159 151 177 96 89 273 163 126 164 173 152 168 179
211 222 222 196 209 203 204 206 208 211 214 218 225 229 223 198 190 190 185 184 183 148 166 181 187 186 186 169 161 168 165 158 168 124 176 113 133 142 148 203 145 203 183 177 185 205 199 174 170 187 164 168 186 198
246 248 243 259 166 188 190 189 196 201 201 210 219 220 202 190 187 190 190 184 182 134 127 157 172 187 182 183 187 171 176 177 184 162 153 145 155 141 164 226 129 244 168 152 112 197 202 188 183 187 194 205 206 208
217 260 277 266 173 181 173 170 186 194 197 199 200 201 200 188 187 193 195 202 183 147 120 166 166 169 184 186 187 190 197 172 161 152 116 133 137 194 191 152 166 170 146 158 266 209 193 212 214 210 205 212 211 214
179 188 257 259 169 166 159 168 154 154 175 184 190 201 194 188 180 186 196 198 190 176 127 131 155 157 183 188 188 184 179 165 156 130 104 156 136 126 54 84 236 192 163 176 213 193 186 205 212 209 210 212 213 224
173 170 188 231 178 151 141 145 159 158 172 170 162 172 180 188 186 178 137 179 187 179 113 119 110 147 160 183 189 184 175 180 182 152 120 149 166 176 155 197 234 198 196 207 186 181 191 185 194 205 208 208 216 229
181 171 156 182 170 144 141 137 141 154 162 171 189 170 180 183 192 181 185 199 184 179 104 104 77 142 142 144 136 145 161 171 182 127 104 142 171 173 146 205 214 205 205 203 205 178 173 188 191 196 200 207 214 237
147 181 171 164 159 169 159 154 136 138 143 147 166 163 159 167 170 180 184 174 183 169 106 112 105 134 151 111 102 129 123 133 119 125 132 128 133 209 254 213 205 199 199 203 200 201 221 208 194 192 199 206 221 234
154 151 174 164 170 165 157 150 143 137 129 145 149 154 146 144 131 139 153 159 166 155 118 126 138 161 165 106 111 96 110 94 128 110 142 140 213 223 221 194 194 189 196 200 197 203 204 201 200 196 201 212 225 225
164 150 172 169 163 162 155 150 138 138 143 139 135 108 83 121 131 134 123 137 91 68 88 91 127 128 153 132 102 108 97 139 149 156 140 157 254 248 235 229 216 205 201 199 185 191 196 197 200 202 215 225 226 222
163 160 170 162 158 169 159 147 148 146 149 121 74 69 128 129 110 95 98 97 140 74 73 110 122 124 129 112 120 98 140 161 155 204 167 248 270 236 230 221 217 212 207 203 210 218 214 213 207 210 219 221 213 221
162 159 152 160 157 163 163 155 154 141 124 120 129 132 114 86 80 88 73 102 67 156 142 128 128 113 122 129 108 115 101 174 169 140 141 258 247 234 212 209 208 204 199 200 205 212 205 204 204 216 225 219 218 218
162 158 152 160 152 157 162 137 142 115 113 108 92 70 59 29 78 134 150 186 102 175 168 153 120 127 116 93 82 108 125 139 138 122 222 237 300 252 205 198 199 198 194 192 191 191 187 193 205 215 215 213 217 221
152 151 151 152 146 159 156 144 135 127 117 71 93 76 56 34 64 147 140 162 125 162 145 133 94 105 111 79 114 107 123 170 140 197 232 253 334 243 193 182 182 179 183 184 183 186 193 204 209 209 209 219 226 229
142 144 145 151 155 148 140 141 142 123 66 66 26 74 51 317 16 31 21 51 98 152 139 110 80 94 68 100 69 109 86 213 212 225 230 337 314 193 174 167 171 174 174 178 186 198 209 215 214 208 215 226 231 235
133 133 152 147 150 155 154 146 126 64 65 57 50 63 48 79 8 57 83 103 148 159 125 84 103 85 93 121 106 203 149 215 244 285 328 334 181 169 156 152 161 165 166 176 196 213 219 218 216 215 222 228 235 242
143 129 166 155 156 155 130 130 82 52 58 53 46 43 75 78 74 49 81 122 166 23 45 84 83 175 97 76 154 211 195 253 319 358 18 85 151 150 147 151 156 159 174 199 213 218 223 223 225 226 230 240 246 253
131 132 133 137 143 129 106 52 73 66 63 43 62 26 50 58 76 79 83 124 143 86 40 99 125 72 121 139 244 270 39 72 76 75 89 111 133 147 154 164 177 204 216 225 233 231 233 235 236 236 237 241 254 265
128 135 127 121 119 105 68 51 47 89 75 89 71 64 65 73 76 99 103 102 98 99 100 52 58 53 62 50 16 45 51 55 75 94 106 119 139 159 182 215 225 225 227 233 238 241 242 248 250 248 253 256 261 266
146 127 124 115 109 74 77 61 66 91 103 111 81 62 70 82 84 71 87 92 83 57 50 42 50 24 33 56 67 62 53 70 106 101 120 144 151 180 201 212 224 234 243 249 253 255 255 256 261 260 259 262 269 273
142 134 118 63 59 68 82 75 70 87 117 91 100 75 77 68 50 42 40 37 61 37 62 53 31 20 50 91 89 91 81 81 80 83 100 114 92 242 256 261 263 262 263 265 269 268 267 266 260 261 266 270 272 274
134 144 132 66 69 70 68 50 90 106 96 107 89 70 58 52 37 29 41 49 62 34 29 8 8 47 103 99 88 83 80 45 6 322 285 284 280 276 276 277 275 274 274 274 272 271 268 270 270 270 271 275 277 280
120 125 70 56 84 65 94 44 78 48 87 73 82 65 36 49 49 41 70 59 81 23 22 23 35 78 87 70 36 6 339 325 317 310 303 296 290 287 285 283 282 282 280 276 276 277 277 275 277 277 277 279 280 282
103 52 35 43 41 99 101 46 62 73 72 41 57 67 26 25 45 61 75 64 29 8 18 29 38 60 27 2 345 339 331 325 317 314 302 294 289 287 286 285 284 284 284 284 280 278 276 276 278 280 280 281 283 284
98 12 21 10 29 48 41 22 6 49 66 359 80 30 0 17 70 57 68 20 15 13 17 19 10 14 7 356 343 342 325 320 319 319 312 299 292 284 287 293 287 284 282 280 278 279 280 282 282 283 284 287 288 288
68 14 36 345 5 65 342 69 40 56 88 58 34 340 22 71 60 37 334 8 7 14 20 25 25 21 358 337 329 326 321 313 311 314 314 298 290 286 291 291 276 277 276 285 290 291 289 288 290 290 290 290 290 292
61 351 33 30 31 48 68 62 70 66 56 40 333 18 54 64 42 293 55 24 35 25 15 7 2 354 344 338 330 325 320 315 315 315 312 302 294 288 286 288 290 286 293 300 301 299 298 298 296 296 296 295 298 300
68 32 65 8 54 39 88 47 37 37 325 1 357 37 91 103 209 46 63 53 39 28 17 4 350 340 334 332 328 324 322 319 317 313 312 308 307 301 293 288 292 295 297 298 297 296 297 298 300 300 300 300 302 303
47 17 50 42 55 49 44 52 16 5 345 20 101 100 116 93 105 80 64 54 38 27 18 9 -0 351 344 340 331 327 321 325 325 318 317 314 304 292 297 293 291 291 292 293 295 297 298 298 299 300 301 303 305 305
23 21 84 59 56 36 22 52 64 69 69 76 90 107 108 114 101 69 51 37 26 19 15 10 2 356 354 351 350 353 337 330 325 326 324 319 315 314 310 307 304 301 299 298 299 299 296 294 292 290 291 292 293 295
20 43 71 60 84 107 87 82 80 80 84 91 103 104 114 125 87 51 37 23 19 16 8 7 9 3 355 352 346 341 345 333 324 319 314 312 312 313 312 309 307 304 302 301 301 301 302 303 304 304 303 304 305 306
25 51 104 98 124 134 82 80 75 74 66 64 55 73 87 93 79 31 10 9 8 6 6 2 0 359 353 346 341 333 325 322 320 317 313 309 309 310 309 308 308 308 308 307 307 307 307 306 305 305 307 308 309 309
53 66 82 95 98 91 78 87 73 91 56 53 42 39 45 61 80 13 6 7 4 354 354 355 356 355 352 351 345 340 331 326 323 320 316 313 312 312 311 311 310 308 306 304 305 306 307 307 306 307 307 307 307 307